Location: Courcelles
(49.2596°N, 1.7419°E)
Time: 01:49:49
(UTC+00:00)

Meteor 2-3 Rocket - Pass Details

Date: 17 November 2025
Orbit: 841 x 884 km, 81.2° (Epoch: 04 December)

Event Time Altitude Azimuth Distance (km) Brightness Sun altitude
Rises 18:37:34 0° 348° (NNW) 3,468 7.0 -24.0°
Reaches altitude 10° 18:40:02 10° 348° (NNW) 2,520 6.3 -24.4°
Maximum altitude 18:45:46 88° 77° (ENE) 866 3.6 -25.4°
Enters shadow 18:50:00 19° 169° (S) 1,943 5.4 -26.0°
